Flag for Germany Weather past 2 weeks in Peine, Lower Saxony, Germany

Now
48 °F

Sunny.


Feels Like: 44 °F
Forecast: 41 / 58 °F
Wind: 9 mph from West

Location: Braunschweig

Current Time: Apr 21, 2015 at 9:19:14 AM

Latest Report: Apr 21, 2015 at 8:50 AM


Visibility: 10 mi

Pressure: 30.36 "Hg

Humidity: 100%

Dew point: 48 °F

Location of PeineLocation

Historic Weather in Peine — Graph

°F

Peine temperature yesterday

Maximum temperature yesterday: 68 °F (at 3:20 PM)
Minimum temperature yesterday: 37 °F (at 7:20 AM)
Average temperature yesterday: 59 °F

Past Weeks' High & Low Weather Summary

 TemperatureHumidityPressure
High73 °F (Apr 15, 4:20 PM)100% (Apr 8, 10:20 AM)30.57 "Hg (Apr 8, 10:20 AM)
Low32 °F (Apr 7, 6:50 AM)28% (Apr 20, 4:20 PM)29.89 "Hg (Apr 15, 4:50 PM)
Average53 °F62%30.23 "Hg
* Reported Apr 6 10:50 AM — Apr 21 8:20 AM, Peine, Weather by CustomWeather, © 2015

Note: Actual official high and low records may vary slightly from our data, if they occured in-between our weather recording intervals... More about our weather records

Advertising

Peine weather history for previous 24 hours

 ConditionsComfort  
Time TempWeatherWind HumidityBarometerVisibility
8:20 AM
Tue, Apr 21
46 °FSunny.8 mph100%30.36 "Hg10 mi
7:50 AM45 °FSunny.6 mph100%30.36 "Hg10 mi
7:20 AM39 °FSunny.6 mph100%30.36 "Hg10 mi
6:50 AM37 °FClear.5 mph100%30.36 "Hg10 mi
9:20 PM
Mon, Apr 20
55 °FSunny.5 mph44%30.33 "Hg10 mi
8:50 PM57 °FPassing clouds.5 mph41%30.33 "HgN/A
8:20 PM61 °FRefreshingly cool.6 mph39%30.30 "HgN/A
7:50 PM63 °FSunny.7 mph34%30.30 "Hg10 mi
7:20 PM64 °FPassing clouds.8 mph34%30.30 "HgN/A
6:50 PM64 °FPassing clouds.12 mph32%30.27 "HgN/A
6:20 PM66 °FPassing clouds.9 mph32%30.27 "HgN/A
5:50 PM66 °FPassing clouds.10 mph32%30.27 "HgN/A
5:20 PM66 °FPassing clouds.13 mph32%30.27 "HgN/A
4:50 PM68 °FPassing clouds.12 mph30%30.27 "HgN/A
4:20 PM68 °FPassing clouds.13 mph28%30.27 "HgN/A
3:50 PM68 °FPassing clouds.12 mph30%30.27 "HgN/A
3:20 PM68 °FPassing clouds.10 mph30%30.30 "HgN/A
2:50 PM66 °FPassing clouds.10 mph32%30.30 "HgN/A
2:20 PM66 °FPassing clouds.12 mph35%30.30 "HgN/A
1:50 PM64 °FPassing clouds.10 mph37%30.30 "HgN/A
1:20 PM63 °FPassing clouds.9 mph42%30.30 "HgN/A
12:50 PM61 °FPassing clouds.10 mph48%30.30 "HgN/A
12:20 PM59 °FPassing clouds.8 mph48%30.30 "HgN/A
11:50 AM59 °FPassing clouds.9 mph48%30.33 "HgN/A
11:20 AM57 °FPassing clouds.12 mph48%30.33 "HgN/A
10:50 AM55 °FPassing clouds.8 mph51%30.33 "HgN/A
10:20 AM54 °FPassing clouds.8 mph58%30.33 "HgN/A
9:50 AM52 °FPassing clouds.7 mph58%30.30 "HgN/A
9:20 AM48 °FPassing clouds.7 mph71%30.33 "HgN/A
Weather by CustomWeather, © 2015

See weather overviewHow to use our weather pages